Location: Goettingen
(51.5300°N, 9.9433°E)
Time: 05:43:45
(UTC+02:00)

ISS - Pass Details

Date: 13 May 2021
Orbit: 417 x 422 km, 51.6° (Epoch: 18 May)

Event Time Altitude Azimuth Distance (km) Brightness Sun altitude
Exits shadow 02:05:02 49° 270° (W) 550 -3.3 -19.3°
Maximum altitude 02:05:50 87° 351° (N) 426 -3.8 -19.3°
Drops below altitude 10° 02:09:14 10° 86° (E) 1,505 -0.8 -19.1°
Sets 02:11:20 0° 87° (E) 2,371 0.3 -19.1°
